Find Kuiper-00166

NORAD ID: 65779 Int'l Des: 2025-217 Owner: KUIP Country: US Constellation: amazon-leo operational
LEOCIRCULAR

現在のビュー

3D地球を読み込み中...

About Kuiper-00166

Kuiper-00166 (NORAD 65779) is a amazon-leo constellation satellite launched Sep 25, 2025 by KUIP of US. It operates in LEO, CIRCULAR orbit with a mass of 490.00 kg.

Kuiper-00166について

説明を読み込み中...

次回通過

Passes for default location (London). Set your location on the main map for personalized predictions.

高度履歴

Loading altitude history...

軌道要素

1 65779U 25217T 26194.37791530 .00001233 00000-0 19069-3 0 9995
2 65779 51.9016 187.3595 0000498 62.4342 297.6671 14.79927969 43769
Epoch: Jul 13, 2026 • Age: 20 hours

現在のステータス

高度 634.1 km
遠地点 / 近地点 N/A
速度 7.54 km/s
衛星直下点 -16.39°S, 3.44°E
打ち上げ日 Sep 25, 2025
運用期間 0.7 years
タイプ internet

技術仕様

分類 Payload
質量 490.00 kg
乾燥質量 490.00 kg
総質量 490.00 kg
長さ 1.80 m
直径 0.70 m
スパン 5.00 m
形状 Box + 2 pan
製造者 KUIP
バスタイプ Kuiper
フェーズステータス In Orbit
所有者/国 KUIP/US

Most Searched